Weather History for South Lake Tahoe, CA

Change the Weather History Date:

Monday, February 27, 2012

  Actual Average Record
Temperature  
Mean Temperature 27 °F 33 °F  
Max Temperature 32 °F 46 °F 57 °F (1992)
Min Temperature 21 °F 20 °F -11 °F (1987)
Degree Days  
Heating Degree Days 38 32  
Month to date heating degree days 846 922  
Since 1 July heating degree days 4582 5204  
Cooling Degree Days 0 0  
Month to date cooling degree days 0 0  
Year to date cooling degree days 0 0  
Moisture  
Dew Point 21 °F    
Average Humidity 63    
Maximum Humidity 81    
Minimum Humidity 45    
Precipitation  
Precipitation 0.54 in - 1.92 in (1940)
Month to date precipitation 0.92  
Year to date precipitation 4.80  
Sea Level Pressure  
Sea Level Pressure 29.71 in    
Wind  
Wind Speed 2 mph (South)    
Max Wind Speed 13 mph    
Max Gust Speed 17 mph    
Visibility 2 miles    
Events Fog , Snow    
T = Trace of Precipitation, MM = Missing Value Source: NWS Daily Summary

Daily Weather History Graph

Daily Weather History Graph

Search for Another Location

Airport:

Trip Planner

Search our weather history database for the weather conditions in past years. The results will help you decide how hot, cold, wet, or windy it might be!

Date:

Astronomy

Feb. 27, 2012 Rise Set
Actual Time 6:35 AM PST 5:50 PM PST
Civil Twilight 6:09 AM PST 6:17 PM PST
Nautical Twilight 5:38 AM PST 6:47 PM PST
Astronomical Twilight 5:07 AM PST 7:18 PM PST
Moon 9:11 AM PST (2/27) 11:44 PM PST (2/27)
Length of Visible Light 12h 07m
Length of Day
11h 14m
Waxing Crescent, 30% of the Moon is Illuminated
Feb 27
Waxing Crescent
Feb 29
First Quarter
Mar 8
Full
Mar 14
Last Quarter
Mar 22
New

Hourly Weather History & Observations

Time (PST) Temp. Windchill Dew Point Humidity Pressure Visibility Wind Dir Wind Speed Gust Speed Precip Events Conditions
12:53 AM 32.0 °F - 14.0 °F 48% 29.68 in 10.0 mi Calm Calm - N/A   Overcast
1:53 AM 32.0 °F 25.6 °F 14.0 °F 48% 29.67 in 10.0 mi South 6.9 mph - N/A   Overcast
2:53 AM 30.0 °F 23.2 °F 19.0 °F 64% 29.67 in 3.0 mi SSW 6.9 mph - 0.00 in Snow Light Snow
3:00 AM 28.4 °F 21.2 °F 19.4 °F 69% 29.71 in 3.0 mi South 6.9 mph - 0.00 in Snow Light Snow
3:11 AM 28.4 °F - 19.4 °F 69% 29.70 in 5.0 mi Calm Calm - 0.00 in Snow Light Snow
3:51 AM 28.4 °F 24.6 °F 19.4 °F 69% 29.70 in 2.5 mi Variable 3.5 mph - 0.00 in Snow Light Snow
3:53 AM 28.9 °F 23.9 °F 19.9 °F 69% 29.68 in 2.0 mi SW 4.6 mph - 0.00 in Snow Light Snow
4:01 AM 28.4 °F 23.3 °F 21.2 °F 74% 29.71 in 1.8 mi SSW 4.6 mph - 0.00 in Snow Light Snow
4:07 AM 28.4 °F 24.6 °F 21.2 °F 74% 29.71 in 2.0 mi SW 3.5 mph - 0.00 in Snow Light Snow
4:15 AM 28.4 °F 23.3 °F 21.2 °F 74% 29.71 in 1.5 mi South 4.6 mph - 0.00 in Snow Light Snow
4:22 AM 28.4 °F 24.6 °F 21.2 °F 74% 29.71 in 3.0 mi SSW 3.5 mph - 0.00 in Snow Light Snow
4:40 AM 28.4 °F - 21.2 °F 74% 29.71 in 2.5 mi Calm Calm - 0.00 in Snow Light Snow
4:53 AM 28.0 °F 22.8 °F 19.9 °F 72% 29.68 in 4.0 mi SSE 4.6 mph - 0.00 in Snow Light Snow
5:01 AM 28.4 °F 24.6 °F 19.4 °F 69% 29.70 in 9.0 mi South 3.5 mph - 0.00 in   Overcast
5:53 AM 28.9 °F 25.2 °F 19.0 °F 67% 29.68 in 10.0 mi SSW 3.5 mph - 0.00 in   Overcast
6:19 AM 28.4 °F 21.2 °F 19.4 °F 69% 29.70 in 2.5 mi SSE 6.9 mph - 0.00 in Snow Light Snow
6:26 AM 28.4 °F 21.2 °F 19.4 °F 69% 29.70 in 0.8 mi South 6.9 mph - N/A Snow Light Snow
6:36 AM 26.6 °F 21.2 °F 19.4 °F 74% 29.70 in 1.2 mi South 4.6 mph - 0.00 in Snow Light Snow
6:53 AM 27.0 °F - 21.9 °F 81% 29.70 in 1.0 mi Calm Calm - 0.00 in Snow Light Snow
7:02 AM 26.6 °F - 21.2 °F 80% 29.70 in 0.8 mi Calm Calm - 0.00 in Snow Light Snow
7:21 AM 26.6 °F - 21.2 °F 80% 29.70 in 0.2 mi Calm Calm - 0.01 in Snow Heavy Snow
7:43 AM 26.6 °F - 21.2 °F 80% 29.70 in 1.0 mi Calm Calm - 0.02 in Snow Light Snow
7:51 AM 26.6 °F - 21.2 °F 80% 29.70 in 3.0 mi Calm Calm - 0.02 in Snow Light Snow
7:53 AM 27.0 °F - 21.0 °F 78% 29.70 in 4.0 mi Calm Calm - 0.02 in Snow Light Snow
8:00 AM 26.6 °F - 21.2 °F 80% 29.71 in 5.0 mi Calm Calm - N/A   Haze
8:02 AM 26.6 °F - 21.2 °F 80% 29.70 in 2.5 mi Calm Calm - 0.00 in Snow Light Snow
8:09 AM 26.6 °F - 21.2 °F 80% 29.70 in 0.8 mi Calm Calm - 0.00 in Snow Light Snow
8:16 AM 26.6 °F - 21.2 °F 80% 29.71 in 1.0 mi Calm Calm - 0.00 in Snow Light Snow
8:33 AM 26.6 °F - 21.2 °F 80% 29.70 in 0.5 mi Calm Calm - 0.00 in Snow Snow
8:42 AM 28.4 °F - 21.2 °F 74% 29.70 in 2.0 mi Calm Calm - 0.00 in Snow Light Snow
8:47 AM 28.4 °F - 21.2 °F 74% 29.70 in 5.0 mi Calm Calm - 0.00 in Snow Light Snow
8:53 AM 28.0 °F - 21.9 °F 78% 29.70 in 2.5 mi Calm Calm - 0.00 in Snow Light Snow
9:00 AM 28.4 °F - 23.0 °F 80% 29.70 in 0.8 mi Calm Calm - 0.00 in Snow Light Snow
9:09 AM 28.4 °F - 21.2 °F 74% 29.69 in 1.2 mi Calm Calm - 0.00 in Snow Light Snow
9:14 AM 30.2 °F - 21.2 °F 69% 29.69 in 3.0 mi Calm Calm - 0.00 in Snow Light Snow
9:23 AM 30.2 °F - 19.4 °F 64% 29.69 in 9.0 mi Calm Calm - 0.00 in   Overcast
9:53 AM 30.0 °F 23.2 °F 19.9 °F 66% 29.68 in 8.0 mi NNE 6.9 mph - 0.00 in   Overcast
9:56 AM 30.2 °F 23.4 °F 21.2 °F 69% 29.68 in 2.0 mi NNE 6.9 mph - 0.00 in Snow Light Snow
10:00 AM 30.2 °F 26.7 °F 23.0 °F 75% 29.68 in 0.8 mi Variable 3.5 mph - 0.00 in Snow Light Snow
10:05 AM 30.2 °F 26.7 °F 23.0 °F 75% 29.68 in 0.5 mi Variable 3.5 mph - 0.00 in Snow Snow
10:30 AM 28.4 °F - 23.0 °F 80% 29.69 in 0.2 mi Calm Calm - 0.01 in Snow Heavy Snow
10:40 AM 28.4 °F - 21.2 °F 74% 29.69 in 0.2 mi Calm Calm - 0.02 in Snow Heavy Snow
10:53 AM 28.0 °F 22.8 °F 23.0 °F 81% 29.69 in 0.2 mi Variable 4.6 mph - 0.04 in Snow Heavy Snow
11:07 AM 26.6 °F 20.0 °F 21.2 °F 80% 29.70 in 0.2 mi South 5.8 mph - 0.04 in Snow Heavy Snow
11:44 AM 28.4 °F - 23.0 °F 80% 29.69 in 1.8 mi Calm Calm - 0.13 in Snow Light Snow
11:47 AM 28.4 °F - 21.2 °F 74% 29.69 in 3.0 mi Calm Calm - 0.13 in Snow Light Snow
11:51 AM 26.6 °F - 21.2 °F 80% 29.69 in 0.8 mi Calm Calm - 0.14 in Snow Light Snow
11:53 AM 27.0 °F - 21.0 °F 78% 29.69 in 0.2 mi Calm Calm - 0.14 in Snow Heavy Snow
12:53 PM 27.0 °F - 21.0 °F 78% 29.67 in 0.2 mi Calm Calm - 0.07 in Snow Heavy Snow
1:17 PM 28.4 °F - 23.0 °F 80% 29.66 in 1.0 mi Calm Calm - 0.02 in Snow Light Snow
1:22 PM 28.4 °F - 21.2 °F 74% 29.66 in 2.0 mi Calm Calm - 0.02 in Snow Light Snow
1:31 PM 30.2 °F - 21.2 °F 69% 29.66 in 5.0 mi Calm Calm - 0.02 in Snow Light Snow
1:43 PM 30.2 °F - 21.2 °F 69% 29.66 in 3.0 mi Calm Calm - 0.02 in Snow Light Snow
1:48 PM 30.2 °F - 23.0 °F 75% 29.66 in 1.8 mi Calm Calm - 0.02 in Snow Light Snow
1:53 PM 30.0 °F - 23.0 °F 75% 29.65 in 1.2 mi Calm Calm - 0.02 in Snow Light Snow
2:03 PM 30.2 °F - 23.0 °F 75% 29.66 in 0.5 mi Calm Calm - 0.01 in Snow Snow
2:19 PM 30.2 °F - 23.0 °F 75% 29.66 in 1.0 mi Calm Calm - 0.01 in Snow Light Snow
2:45 PM 28.4 °F - 23.0 °F 80% 29.66 in 0.5 mi Calm Calm - 0.01 in Snow Snow
2:53 PM 30.0 °F - 24.1 °F 79% 29.66 in 0.2 mi Calm Calm - 0.02 in Snow Heavy Snow
2:59 PM 30.2 °F - 24.8 °F 80% 29.66 in 1.2 mi Calm Calm - 0.00 in Snow Light Snow
3:02 PM 32.0 °F - 23.0 °F 69% 29.66 in 4.0 mi Calm Calm - 0.00 in Snow Light Snow
3:09 PM 30.2 °F - 23.0 °F 75% 29.66 in 9.0 mi Calm Calm - 0.00 in Snow Light Snow
3:20 PM 30.2 °F 22.6 °F 21.2 °F 69% 29.66 in 9.0 mi NE 8.1 mph - 0.00 in   Overcast
3:22 PM 30.2 °F 22.6 °F 21.2 °F 69% 29.66 in 1.8 mi NW 8.1 mph - 0.00 in   Haze
3:33 PM 30.2 °F 26.7 °F 23.0 °F 75% 29.66 in 3.0 mi SE 3.5 mph - 0.00 in Snow Light Snow
3:38 PM 30.2 °F 26.7 °F 21.2 °F 69% 29.67 in 5.0 mi South 3.5 mph - 0.00 in Snow Light Snow
3:53 PM 28.9 °F 22.8 °F 23.0 °F 78% 29.68 in 1.8 mi South 5.8 mph - 0.00 in Snow Light Snow
4:04 PM 28.4 °F 23.3 °F 24.8 °F 86% 29.67 in 0.8 mi South 4.6 mph - 0.00 in Snow Light Snow
4:19 PM 28.4 °F - 23.0 °F 80% 29.67 in 0.5 mi Calm Calm - 0.00 in Snow Snow
4:48 PM 28.4 °F 24.6 °F 23.0 °F 80% 29.68 in 0.5 mi NE 3.5 mph - 0.01 in Snow Snow
4:53 PM 28.0 °F - 23.0 °F 81% 29.70 in 0.5 mi Calm Calm - 0.01 in Snow Snow
5:49 PM 26.6 °F 20.0 °F 21.2 °F 80% 29.71 in 0.2 mi NNE 5.8 mph - 0.06 in Fog , Snow Heavy Snow
5:53 PM 26.1 °F 20.5 °F 21.9 °F 84% 29.73 in 0.2 mi NNE 4.6 mph - 0.07 in Fog , Snow Heavy Snow
6:44 PM 26.6 °F - 21.2 °F 80% 29.72 in 0.8 mi Calm Calm - 0.08 in Snow Light Snow
6:47 PM 26.6 °F - 21.2 °F 80% 29.72 in 1.2 mi Calm Calm - 0.08 in Snow Light Snow
6:53 PM 26.1 °F 21.9 °F 21.0 °F 81% 29.75 in 2.0 mi NNE 3.5 mph - 0.08 in Snow Light Snow
7:02 PM 26.6 °F 20.0 °F 21.2 °F 80% 29.72 in 1.0 mi NNE 5.8 mph - 0.00 in Snow Light Snow
7:13 PM 26.6 °F 22.6 °F 21.2 °F 80% 29.72 in 0.8 mi NNE 3.5 mph - 0.01 in Snow Light Snow
7:21 PM 26.6 °F 21.2 °F 21.2 °F 80% 29.72 in 0.5 mi Variable 4.6 mph - 0.01 in Fog , Snow Snow
7:29 PM 26.6 °F 21.2 °F 21.2 °F 80% 29.73 in 0.5 mi NE 4.6 mph - 0.02 in Snow Snow
7:53 PM 26.1 °F - 21.0 °F 81% 29.76 in 0.5 mi Calm Calm - 0.04 in Snow Snow
8:21 PM 26.6 °F - 21.2 °F 80% 29.73 in 0.8 mi Calm Calm - 0.01 in Snow Light Snow
8:29 PM 26.6 °F - 21.2 °F 80% 29.73 in 1.0 mi Calm Calm - 0.01 in Snow Light Snow
8:53 PM 26.1 °F - 21.0 °F 81% 29.78 in 1.2 mi Calm Calm - 0.02 in Snow Light Snow
9:04 PM 24.8 °F - 21.2 °F 86% 29.75 in 1.8 mi Calm Calm - 0.00 in Snow Light Snow
9:18 PM 24.8 °F - 21.2 °F 86% 29.76 in 1.2 mi Calm Calm - 0.00 in Snow Light Snow
9:26 PM 24.8 °F 20.5 °F 21.2 °F 86% 29.76 in 1.2 mi SSW 3.5 mph - 0.00 in Snow Light Snow
9:49 PM 26.6 °F - 21.2 °F 80% 29.77 in 2.5 mi Calm Calm - 0.00 in Snow Light Snow
9:53 PM 26.1 °F - 21.0 °F 81% 29.79 in 1.8 mi Calm Calm - 0.00 in Snow Light Snow
10:07 PM 26.6 °F - 21.2 °F 80% 29.77 in 0.8 mi Calm Calm - 0.01 in Snow Light Snow
10:17 PM 24.8 °F - 21.2 °F 86% 29.77 in 1.0 mi Calm Calm - 0.01 in Snow Light Snow
10:32 PM 24.8 °F - 21.2 °F 86% 29.77 in 3.0 mi Calm Calm - 0.01 in Snow Light Snow
10:42 PM 24.8 °F - 21.2 °F 86% 29.77 in 7.0 mi Calm Calm - 0.01 in   Overcast
10:53 PM 24.1 °F - 19.9 °F 84% 29.82 in 2.5 mi Calm Calm - 0.01 in Snow Light Snow
11:01 PM 23.0 °F 18.4 °F 19.4 °F 86% 29.78 in 1.0 mi South 3.5 mph - 0.00 in Snow Light Snow
11:17 PM 23.0 °F - 19.4 °F 86% 29.78 in 2.5 mi Calm Calm - 0.00 in Snow Light Snow
11:27 PM 24.8 °F - 19.4 °F 80% 29.78 in 3.0 mi Calm Calm - 0.00 in Snow Light Snow
11:45 PM 21.2 °F - 17.6 °F 86% 29.79 in 6.0 mi Calm Calm - 0.00 in   Haze
11:53 PM 21.0 °F - 17.1 °F 85% 29.85 in 9.0 mi Calm Calm - 0.00 in   Mostly Cloudy